Volver al catálogo

DELTA 2 R/B(1)

ActivoMEO
NORAD 34382·ROCKET BODY·🇺🇸 United States

Lanzado Mar 7, 2009 desde Cape Canaveral Space Force Station

Loading…

Próximos Pases (próximas 24 horas)

TLE

ActualizadoSource: Space-Track

Época: Sep 14, 2026, 02:12 UTC

1 34382U 09011C   26257.09189859  .00000031  00000-0  36015-2 0  9993
2 34382  28.5598 292.0248 2279249 303.5174  47.7970  7.34326062470350

Sigue DELTA 2 R/B(1) en tiempo real con AllMySat

Download on the App Store